RH
11 7 8 9 8 7 7 9 12 15 15 14 15 20 25 26 25 24 23 23 24 26 29 34 41 47 51 54 56 58 58 52 44 37 35 35 36 38 41 43 44 42
23 15 12 12 12 11 11 13 16 17 16 16 18 23 26 26 24 22 23 24 25 26 31 39 48 53 53 53 54 54 49 43 37 33 31 31 31 31 30 29 28 28
29 26 21 20 20 20 19 19 20 18 17 18 20 23 27 26 22 21 24 25 22 25 34 43 47 47 44 42 42 41 37 34 31 28 27 26 25 25 25 24 23 23
31 33 32 31 32 31 28 26 24 20 19 20 21 26 27 23 21 24 25 23 23 32 41 42 37 31 28 27 27 27 27 27 27 26 27 27 25 23 22 20 20 20
31 33 36 38 40 41 37 33 28 23 21 21 24 27 25 22 24 26 26 30 36 41 37 30 24 21 20 21 22 24 25 26 27 27 28 28 27 26 22 19 18 19
30 33 35 39 45 48 44 39 32 26 22 22 26 26 23 23 23 24 32 41 42 34 25 20 19 20 22 23 24 25 28 30 31 31 30 29 27 26 24 22 20 19
24 27 29 34 40 46 48 44 35 26 22 24 26 25 23 22 22 29 39 39 30 22 19 18 20 22 26 27 27 29 31 33 35 34 33 31 29 28 28 28 26 22
15 16 18 21 25 36 47 46 33 24 22 24 25 24 22 22 27 37 37 28 21 19 18 20 24 28 31 32 34 34 33 33 34 35 35 34 33 31 30 31 31 28
8 8 8 10 17 34 46 41 28 23 24 24 24 24 22 25 32 35 29 23 19 18 20 26 31 35 38 40 39 36 34 32 31 32 34 35 35 33 32 33 33 31
6 5 5 9 22 38 41 32 24 23 25 24 23 23 24 26 28 28 25 22 18 19 25 33 40 45 46 45 41 38 37 35 34 33 34 35 35 36 36 35 33 30
7 7 8 15 26 34 32 26 22 23 24 23 23 24 25 24 25 26 24 20 18 24 32 39 46 50 49 47 45 45 45 45 43 40 36 34 34 37 38 34 30 28
9 9 11 15 22 27 26 22 22 22 21 21 23 25 25 25 27 26 21 19 22 28 33 39 45 46 46 46 46 47 50 51 49 44 39 35 34 36 37 33 29 27
10 9 10 11 14 18 19 18 20 21 19 20 24 26 26 27 26 22 20 21 25 29 34 39 42 42 43 46 48 50 52 51 48 44 40 36 35 38 40 38 34 28
14 11 9 9 10 11 12 14 17 19 18 20 23 26 28 27 23 21 24 28 31 35 39 41 42 43 44 46 49 50 48 46 45 45 44 42 41 44 47 50 46 33
16 14 11 9 8 9 10 12 16 17 17 19 24 28 27 24 22 25 30 37 41 43 43 44 45 46 45 46 49 52 51 48 46 50 54 54 54 55 56 61 57 40
14 14 13 10 9 10 11 12 15 15 15 19 26 30 27 25 27 31 36 42 45 45 45 47 47 46 46 50 57 62 62 59 59 61 61 58 60 63 65 65 59 44
11 12 11 9 9 10 10 11 12 12 14 20 25 26 26 31 38 42 44 45 45 45 47 47 46 46 51 57 63 65 64 64 65 64 61 57 57 59 61 59 54 46
9 10 9 9 9 9 9 9 10 11 15 20 23 25 31 39 46 49 49 48 46 47 49 48 48 52 58 61 61 61 62 65 66 65 63 60 56 55 54 52 50 48
10 9 8 10 10 9 9 9 9 11 16 22 28 34 41 46 48 50 50 48 48 51 53 53 56 60 62 63 60 58 62 69 72 70 63 55 51 51 51 50 49 47
14 10 10 11 11 10 10 9 10 14 19 27 36 42 46 48 49 50 49 47 51 55 55 56 62 65 65 64 61 59 65 74 80 75 60 46 45 49 49 48 48 45
17 13 12 12 13 12 11 10 13 18 25 34 41 45 48 49 49 49 47 48 55 59 57 58 64 66 67 66 61 59 65 74 78 74 57 40 40 46 48 48 46 43
20 16 15 15 15 14 14 13 16 23 33 41 45 47 49 50 49 48 47 52 59 59 57 60 64 66 69 69 64 64 70 73 72 72 62 44 37 43 46 46 44 41
25 20 19 20 19 17 17 18 22 30 40 45 46 48 51 52 49 47 49 56 60 57 57 60 63 65 69 69 66 68 74 74 69 71 70 54 39 40 44 44 43 41
29 25 25 24 23 23 22 24 29 37 44 48 48 49 52 52 47 47 53 59 59 55 56 59 62 63 66 68 67 68 72 72 68 72 75 59 40 37 41 42 41 39
36 31 31 30 28 28 28 30 36 42 48 51 50 51 53 50 46 50 58 60 57 54 57 61 63 62 63 64 67 70 72 69 66 72 73 56 38 37 41 41 39 37
44 41 39 37 34 34 38 42 45 49 52 53 52 55 56 51 49 55 59 57 55 56 60 63 62 60 61 64 69 76 76 71 72 78 72 53 39 39 41 40 38 36
Wind_Speed
18 17 16 15 13 12 11 11 11 11 11 12 13 13 12 10 9 9 9 9 9 9 10 11 12 14 16 17 17 17 17 18 18 18 19 19 19 19 19 19 20 21
20 19 18 17 15 14 13 12 12 12 12 13 14 14 12 10 9 9 9 9 9 9 10 11 13 15 16 16 16 16 16 17 18 19 20 20 21 21 21 21 22 23
22 21 20 20 19 17 15 13 13 13 13 14 15 14 12 9 8 8 8 9 9 10 10 11 14 15 14 14 15 16 17 18 19 20 21 22 22 23 23 23 24 25
24 23 23 22 21 19 16 14 14 14 14 16 16 14 12 9 8 7 8 9 9 10 11 12 14 14 13 13 14 16 18 19 20 21 22 23 23 24 25 25 25 26
25 25 25 24 22 19 16 15 16 15 16 17 16 14 11 9 8 7 7 8 9 10 11 12 13 14 14 15 16 18 19 20 21 22 23 24 24 25 25 26 26 26
25 25 26 25 22 19 17 17 17 17 17 18 16 13 10 9 8 7 7 7 8 9 11 13 14 15 16 17 18 19 20 21 21 22 23 24 25 25 25 25 25 25
26 26 27 26 23 20 19 19 18 18 19 19 15 12 10 9 8 7 6 7 8 10 12 13 14 15 17 18 19 20 20 20 20 21 22 23 23 24 24 24 24 25
26 27 27 26 22 19 19 19 19 19 20 19 14 11 10 9 8 7 7 8 9 11 12 13 14 15 17 18 19 20 21 21 21 21 22 23 24 25 25 25 25 25
24 24 24 21 19 17 18 20 20 21 21 18 14 12 11 9 8 8 8 9 10 11 11 12 13 14 16 18 19 20 22 23 24 24 25 26 27 29 29 29 29 27
20 20 19 18 17 17 18 20 21 22 21 18 14 12 11 10 9 9 9 9 10 11 11 11 11 13 16 18 19 20 22 24 26 27 28 28 29 31 32 32 32 31
17 17 17 18 18 18 19 21 22 22 21 17 14 13 12 10 10 10 9 10 11 11 11 11 13 16 18 20 21 22 24 26 28 29 30 30 30 31 33 34 34 33
16 17 17 18 19 20 21 22 23 22 20 17 15 15 13 11 11 11 11 11 11 12 13 13 15 18 20 23 24 25 27 29 30 32 32 32 32 32 33 33 34 33
16 17 18 20 21 23 23 23 23 22 20 18 17 15 14 13 12 12 12 12 12 13 14 14 16 19 22 24 26 27 29 30 31 32 34 34 34 35 35 35 34 34
18 18 19 21 23 24 24 24 23 23 21 19 18 16 15 14 12 12 13 13 14 14 14 15 17 20 22 24 26 28 29 30 31 32 34 35 36 36 37 37 36 35
21 21 21 23 24 24 23 23 23 23 22 20 18 17 16 14 12 13 14 14 14 14 14 16 18 21 23 25 27 29 31 33 33 33 35 36 37 37 37 37 37 35
25 24 24 25 25 24 23 23 23 24 23 20 19 18 16 14 13 14 15 15 15 15 16 18 20 22 25 27 29 31 33 33 32 32 33 35 35 35 36 36 36 35
27 25 26 26 25 25 25 25 25 25 23 21 20 18 16 14 14 14 14 15 15 16 17 19 22 24 26 27 29 31 32 32 32 31 32 34 34 34 35 35 35 36
28 27 26 27 27 27 27 26 26 25 24 21 19 17 16 15 14 13 13 14 15 16 18 20 22 24 25 27 29 31 33 33 33 33 34 35 35 36 36 35 35 36
28 28 27 28 28 29 29 28 27 26 23 21 19 17 17 16 15 14 13 14 15 16 18 21 23 25 27 28 29 31 33 34 34 35 36 37 37 36 36 36 36 36
29 29 28 29 30 31 31 30 28 26 24 22 20 19 19 17 16 16 15 15 16 17 19 21 24 26 28 28 29 31 32 33 34 35 37 38 37 35 35 35 35 34
28 28 29 31 32 33 33 31 28 27 25 23 22 21 20 19 18 17 16 16 17 19 20 22 25 27 28 29 30 32 34 34 34 35 37 38 37 35 33 33 34 33
28 28 30 33 35 35 34 31 29 27 26 24 23 22 22 20 18 17 16 17 18 20 22 24 26 28 29 30 32 34 36 37 37 37 38 40 38 36 34 34 34 34
30 30 31 34 36 36 34 31 29 28 26 25 24 23 21 19 18 17 17 18 19 21 23 25 27 29 31 33 34 35 37 39 39 40 40 41 40 38 36 35 36 35
33 33 33 35 37 36 33 32 30 28 27 25 24 22 20 19 19 18 18 19 21 22 25 27 29 31 33 35 37 38 39 40 41 42 42 41 41 40 37 37 37 36
37 36 35 36 37 35 33 32 31 29 27 26 25 22 20 19 19 18 19 21 22 23 26 28 30 33 35 37 39 41 42 42 43 42 41 41 42 41 39 38 36 36
40 40 38 37 37 35 32 32 31 30 29 28 25 22 20 20 19 20 21 22 22 24 27 29 32 34 37 39 41 42 43 43 43 41 40 41 42 41 40 38 36 36
Wind_Direction
255 255 253 250 248 247 250 256 261 265 271 270 263 257 256 262 274 286 291 293 296 299 302 305 307 308 307 306 306 305 307 312 319 326 330 330 329 327 323 319 317 317
249 251 253 252 250 249 249 252 255 258 262 262 257 254 255 263 276 285 289 292 296 298 300 303 303 304 305 308 310 312 314 318 321 324 325 326 325 323 322 320 318 318
245 246 248 250 250 250 249 249 250 252 256 257 254 253 255 262 273 281 286 293 299 300 301 301 300 302 307 311 313 314 315 317 319 319 320 320 321 321 320 319 318 317
241 242 244 246 248 250 249 247 246 247 251 252 250 251 255 260 266 272 282 293 299 299 298 299 300 304 309 312 311 310 311 312 314 315 316 317 318 319 319 318 317 315
239 241 243 245 247 248 247 243 242 244 248 248 246 248 253 258 260 264 277 290 295 294 294 296 302 307 309 310 308 306 307 309 311 311 312 314 315 316 317 317 316 313
239 241 244 245 244 242 241 240 240 242 245 244 243 243 248 253 258 264 275 285 287 287 291 298 304 307 308 308 306 306 307 310 311 311 312 312 312 313 314 314 312 311
239 241 243 245 242 237 235 237 238 241 242 241 239 240 242 247 256 265 273 276 280 285 293 300 305 307 308 308 309 310 312 313 314 314 314 314 314 315 317 316 312 309
239 240 243 245 240 231 231 234 235 238 240 238 236 236 237 241 249 257 262 270 279 287 293 300 306 308 309 311 313 316 317 317 318 321 321 322 322 322 322 321 316 310
238 238 240 238 228 221 225 231 233 234 236 235 233 233 236 239 242 246 257 271 278 285 293 299 303 306 308 312 315 318 320 322 324 325 327 330 330 328 327 325 321 314
235 232 228 218 210 212 220 227 230 230 231 231 229 231 235 235 238 246 258 267 274 282 289 292 295 300 305 311 315 319 322 324 325 327 330 332 332 330 328 326 322 316
229 220 212 204 202 208 216 224 227 226 227 228 226 229 232 233 239 250 256 262 271 278 279 282 292 301 308 314 319 323 325 325 325 326 327 329 329 329 328 326 322 315
227 214 205 202 202 206 212 219 222 224 226 225 224 227 230 235 242 250 254 260 266 270 273 282 297 308 316 320 323 325 325 324 324 324 323 323 323 324 324 324 322 317
232 220 208 204 204 206 211 214 218 223 225 224 225 228 231 237 244 250 256 260 264 269 277 289 304 314 319 321 322 321 320 320 320 320 319 318 318 319 319 320 321 319
238 231 219 211 209 211 212 214 217 222 225 224 226 229 233 239 246 254 260 264 268 274 283 296 308 313 314 316 316 315 314 314 314 315 315 314 313 314 316 318 319 318
240 239 232 224 221 220 219 218 219 223 226 227 227 230 234 238 246 255 260 264 270 278 289 302 307 307 308 312 314 314 313 311 310 312 313 313 312 311 312 316 317 316
241 241 239 235 231 228 225 221 222 226 229 228 228 231 235 238 240 244 250 258 269 282 295 302 303 305 310 314 316 317 317 314 313 315 317 317 317 314 313 315 316 314
246 243 241 241 237 233 229 227 227 230 231 229 231 235 239 238 236 237 245 258 271 284 293 296 300 307 313 315 317 319 320 320 319 319 321 321 320 318 315 314 314 313
253 246 242 241 239 236 234 233 232 232 231 229 233 239 242 242 240 244 253 264 274 284 290 295 302 310 314 316 318 320 321 322 321 320 319 319 318 316 313 312 312 312
258 250 244 241 241 239 237 236 236 233 229 227 228 233 238 243 247 254 262 271 280 288 295 301 307 311 314 317 318 319 320 320 318 317 317 316 315 312 309 309 310 310
261 255 248 243 241 241 240 239 236 232 226 221 220 226 234 241 248 257 267 278 288 295 299 303 308 311 315 318 319 319 321 320 317 316 315 314 313 311 309 308 309 309
263 260 252 246 243 242 242 240 235 228 223 219 219 225 232 240 249 259 271 281 292 298 300 303 308 312 316 320 320 321 322 322 318 314 313 315 314 312 311 310 309 307
263 263 255 248 245 243 242 239 234 227 223 221 223 227 233 242 252 262 272 284 292 297 299 304 309 314 318 320 320 322 322 321 320 316 314 316 316 314 312 311 308 305
262 263 258 250 245 243 241 238 233 228 226 225 227 231 237 247 256 264 274 285 292 296 300 306 311 315 317 319 319 320 319 319 318 317 315 316 315 313 310 309 307 305
261 262 259 251 245 243 240 237 233 230 228 229 231 234 242 251 257 265 277 286 292 298 303 308 312 315 316 316 317 318 318 316 315 313 312 312 313 311 308 307 306 306
259 260 258 252 246 242 239 236 234 231 230 232 234 238 246 254 260 270 279 287 295 301 305 309 312 313 314 315 317 318 318 317 316 312 310 311 312 310 307 306 306 306
255 256 255 252 246 241 237 234 232 231 232 236 239 245 252 259 267 275 281 290 298 302 306 309 310 311 312 314 316 317 317 317 316 314 312 312 312 309 306 305 306 306